GW3435 Weather Reports


time (UTC)temp
C
wind
direction
speed
KPH
gust
KPH
rain 1hr
cm
rain 24hr
cm
rain mn
cm
humidity
%
barometer
mb
20260906065020 26 315 6.4 12.9 0.00 0.00 0.00 53 1015.4
20260906064034 25 309 6.4 14.5 0.00 0.00 0.00 56 1015.4
20260906063111 25 307 6.4 14.5 0.00 0.00 0.00 56 1015.3
20260906062026 24 290 6.4 12.9 0.00 0.00 0.00 57 1015.3
20260906061022 23 284 4.8 12.9 0.00 0.00 0.00 60 1015.3
20260906060017 23 291 4.8 16.1 0.00 0.00 0.00 59 1015.1
20260906055032 24 246 3.2 12.9 0.00 0.00 0.00 58 1015.1
20260906054048 24 309 1.6 6.4 0.00 0.00 0.00 57 1015.0
20260906053024 23 240 1.6 6.4 0.00 0.00 0.00 60 1015.0
20260906052019 23 280 3.2 11.3 0.00 0.00 0.00 62 1014.9
20260906051035 23 12 1.6 4.8 0.00 0.00 0.00 60 1014.8
20260906050031 23 45 1.6 3.2 0.00 0.00 0.00 61 1014.8
20260906045027 23 92 0.0 0.0 0.00 0.00 0.00 61 1014.9
20260906044043 22 190 0.0 0.0 0.00 0.00 0.00 62 1014.9
20260906043019 22 104 0.0 0.0 0.00 0.00 0.00 63 1014.6
20260906042034 22 97 1.6 4.8 0.00 0.00 0.00 63 1014.5
20260906041030 22 89 3.2 9.7 0.00 0.00 0.00 63 1014.3
20260906040046 22 74 3.2 4.8 0.00 0.00 0.00 62 1014.2
20260906035021 21 102 1.6 4.8 0.00 0.00 0.00 64 1014.0
20260906034017 21 93 1.6 4.8 0.00 0.00 0.00 62 1013.9
20260906033033 22 242 1.6 4.8 0.00 0.00 0.00 61 1013.8
20260906032029 22 78 1.6 4.8 0.00 0.00 0.00 60 1013.7
20260906031105 21 208 1.6 3.2 0.00 0.00 0.00 60 1013.8
20260906030020 21 239 0.0 0.0 0.00 0.00 0.00 60 1013.8
20260906025016 21 101 0.0 3.2 0.00 0.00 0.00 60 1013.8
20260906024032 21 135 0.0 0.0 0.00 0.00 0.00 60 1013.8
20260906023028 22 216 1.6 4.8 0.00 0.00 0.00 60 1013.8
20260906022024 22 258 3.2 9.7 0.00 0.00 0.00 59 1013.9
20260906021019 23 279 4.8 12.9 0.00 0.00 0.00 59 1013.8
20260906020035 22 291 6.4 17.7 0.00 0.00 0.00 59 1013.7
20260906015030 22 136 0.0 0.0 0.00 0.00 0.00 62 1013.8
20260906014026 23 281 8.0 16.1 0.00 0.00 0.00 60 1013.8
20260906013022 23 276 4.8 12.9 0.00 0.00 0.00 63 1013.9
20260906012017 22 298 8.0 14.5 0.00 0.00 0.00 64 1014.0
20260906011033 22 262 3.2 12.9 0.00 0.00 0.00 64 1014.0
20260906010028 22 248 0.0 1.6 0.00 0.00 0.00 63 1013.8
20260906005022 22 239 0.0 3.2 0.00 0.00 0.00 63 1014.0
20260906004018 22 55 0.0 3.2 0.00 0.00 0.00 63 1013.9
20260906003032 22 214 0.0 0.0 0.00 0.00 0.00 62 1013.8
20260906002026 22 82 1.6 3.2 0.00 0.00 0.00 61 1013.9
20260906001021 23 201 0.0 1.6 0.00 0.00 0.00 60 1013.9
20260906000038 22 285 0.0 3.2 0.00 0.00 0.00 61 1013.9
20260905235033 22 91 0.0 1.6 0.00 0.00 0.00 61 1014.1
20260905234029 22 355 1.6 3.2 0.00 0.00 0.00 61 1014.0
20260905233024 22 146 0.0 0.0 0.00 0.00 0.00 61 1014.0
20260905232019 22 289 1.6 3.2 0.00 0.00 0.00 59 1014.1
20260905231035 22 255 0.0 3.2 0.00 0.00 0.00 61 1014.1
20260905230031 22 149 0.0 0.0 0.00 0.00 0.00 63 1014.1
20260905225026 22 210 0.0 0.0 0.00 0.00 0.00 62 1014.2
20260905224021 22 92 0.0 0.0 0.00 0.00 0.00 63 1014.1
20260905223036 22 305 1.6 3.2 0.00 0.00 0.00 63 1014.1
20260905222112 22 223 0.0 3.2 0.00 0.00 0.00 64 1014.0
20260905221027 22 84 0.0 3.2 0.00 0.00 0.00 64 1014.1
20260905220042 22 119 0.0 0.0 0.00 0.00 0.00 66 1014.2
20260905215017 22 171 0.0 0.0 0.00 0.00 0.00 66 1014.2
20260905214032 22 235 0.0 0.0 0.00 0.00 0.00 66 1014.2
20260905213028 22 138 0.0 0.0 0.00 0.00 0.00 68 1014.4
20260905212024 22 291 0.0 1.6 0.00 0.00 0.00 69 1014.3
20260905211020 22 225 0.0 1.6 0.00 0.00 0.00 71 1014.3
20260905210036 22 141 0.0 0.0 0.00 0.00 0.00 73 1014.5
20260905205032 21 143 0.0 0.0 0.00 0.00 0.00 75 1014.5
20260905204027 22 164 0.0 0.0 0.00 0.00 0.00 75 1014.5
20260905203043 22 276 0.0 3.2 0.00 0.00 0.00 74 1014.5
20260905202019 22 105 0.0 0.0 0.00 0.00 0.00 73 1014.6
20260905201034 22 155 0.0 0.0 0.00 0.00 0.00 75 1014.6
20260905200030 22 291 0.0 0.0 0.00 0.00 0.00 75 1014.5
20260905195025 22 284 0.0 3.2 0.00 0.00 0.00 73 1014.5
20260905194021 22 265 0.0 0.0 0.00 0.00 0.00 72 1014.5
20260905193017 23 265 0.0 0.0 0.00 0.00 0.00 75 1014.6
20260905192033 23 269 0.0 1.6 0.00 0.00 0.00 74 1014.7
20260905191028 23 182 0.0 0.0 0.00 0.00 0.00 73 1014.6
20260905190024 23 182 0.0 0.0 0.00 0.00 0.00 73 1014.6
20260905185020 23 182 0.0 0.0 0.00 0.00 0.00 73 1014.7
20260905184035 23 182 0.0 0.0 0.00 0.00 0.00 74 1014.4
20260905183031 24 182 0.0 0.0 0.00 0.00 0.00 72 1014.3
20260905182026 24 182 0.0 0.0 0.00 0.00 0.00 69 1014.4
20260905181022 24 181 0.0 0.0 0.00 0.00 0.00 69 1014.4
20260905180018 25 182 0.0 0.0 0.00 0.00 0.00 70 1014.4
20260905175054 25 183 0.0 0.0 0.00 0.00 0.00 70 1014.3
20260905174030 25 183 0.0 0.0 0.00 0.00 0.00 69 1014.3
20260905173025 26 183 0.0 0.0 0.00 0.00 0.00 68 1014.2
20260905172020 26 222 0.0 0.0 0.00 0.00 0.00 68 1014.1
20260905171037 26 229 0.0 0.0 0.00 0.00 0.00 67 1014.0
20260905170031 27 228 0.0 1.6 0.00 0.00 0.00 67 1014.0
20260905165027 28 288 0.0 3.2 0.00 0.00 0.00 66 1014.1
20260905164023 28 1 1.6 3.2 0.00 0.00 0.00 65 1013.9
20260905163018 29 328 0.0 4.8 0.00 0.00 0.00 64 1013.9
20260905162034 30 318 1.6 4.8 0.00 0.00 0.00 59 1013.9
20260905161029 30 317 1.6 4.8 0.00 0.00 0.00 52 1013.9
20260905160025 30 355 0.0 3.2 0.00 0.00 0.00 50 1013.9
20260905155021 31 14 3.2 4.8 0.00 0.00 0.00 48 1013.8
20260905154036 31 331 1.6 4.8 0.00 0.00 0.00 46 1013.7
20260905153052 31 356 1.6 4.8 0.00 0.00 0.00 47 1013.8
20260905152038 30 343 3.2 4.8 0.00 0.00 0.00 49 1013.7
20260905151525 32 8 3.2 9.7 0.00 0.00 0.00 44 1013.7
20260905150533 32 59 1.6 4.8 0.00 0.00 0.00 37 1013.6
20260905145556 31 20 3.2 4.8 0.00 0.00 0.00 42 1013.7
20260905144538 32 46 6.4 9.7 0.00 0.00 0.00 41 1013.6
20260905141023 31 35 3.2 6.4 0.00 0.00 0.00 40 1013.8
20260905140017 32 46 4.8 9.7 0.00 0.00 0.00 38 1013.9
20260905135032 32 24 6.4 12.9 0.00 0.00 0.00 36 1013.9
20260905134106 32 33 4.8 11.3 0.00 0.00 0.00 29 1014.0
20260905133022 33 34 4.8 9.7 0.00 0.00 0.00 28 1014.2
20260905132036 32 36 6.4 12.9 0.00 0.00 0.00 28 1014.1
20260905131028 32 59 6.4 11.3 0.00 0.00 0.00 29 1014.2
20260905130024 32 33 6.4 9.7 0.00 0.00 0.00 28 1014.2
20260905125535 33 71 6.4 12.9 0.00 0.00 0.00 27 1014.4
20260905125019 33 34 6.4 11.3 0.00 0.00 0.00 28 1014.4
20260905124529 32 32 3.2 6.4 0.00 0.00 0.00 28 1014.5
20260905123036 32 68 6.4 12.9 0.00 0.00 0.00 29 1014.7
20260905122028 32 79 6.4 11.3 0.00 0.00 0.00 29 1014.8
20260905121026 32 54 6.4 12.9 0.00 0.00 0.00 31 1014.9
20260905120021 31 43 8.0 14.5 0.00 0.00 0.00 31 1014.9
20260905115034 31 41 8.0 12.9 0.00 0.00 0.00 31 1015.1
20260905114030 31 42 8.0 12.9 0.00 0.00 0.00 30 1015.2
20260905113023 31 51 8.0 12.9 0.00 0.00 0.00 30 1015.2
20260905112018 31 31 8.0 11.3 0.00 0.00 0.00 30 1015.3
20260905111033 31 51 6.4 11.3 0.00 0.00 0.00 30 1015.4
20260905110026 31 35 6.4 14.5 0.00 0.00 0.00 32 1015.5
20260905105022 31 43 8.0 12.9 0.00 0.00 0.00 34 1015.5
20260905104017 31 59 6.4 11.3 0.00 0.00 0.00 35 1015.5
20260905103053 30 53 8.0 12.9 0.00 0.00 0.00 37 1015.7
20260905102028 31 49 6.4 12.9 0.00 0.00 0.00 37 1015.7
20260905101024 30 50 4.8 12.9 0.00 0.00 0.00 39 1015.8
20260905100020 30 47 8.0 12.9 0.00 0.00 0.00 41 1015.8
20260905095036 30 51 8.0 14.5 0.00 0.00 0.00 44 1015.9
20260905094031 30 54 4.8 11.3 0.00 0.00 0.00 43 1016.1
20260905093026 30 17 3.2 9.7 0.00 0.00 0.00 45 1016.1
20260905092021 31 297 3.2 9.7 0.00 0.00 0.00 34 1016.1
20260905091017 30 308 6.4 12.9 0.00 0.00 0.00 36 1016.1
20260905090032 30 321 6.4 12.9 0.00 0.00 0.00 37 1016.2
20260905085028 30 303 8.0 16.1 0.00 0.00 0.00 40 1016.2
20260905084023 30 298 9.7 16.1 0.00 0.00 0.00 41 1016.3
20260905074029 26 278 11.3 16.1 0.00 0.00 0.00 57 1016.3
20260905073519 26 293 9.7 20.9 0.00 0.00 0.00 57 1016.4
20260905072553 26 317 9.7 16.1 0.00 0.00 0.00 57 1016.4
20260905071528 26 300 11.3 20.9 0.00 0.00 0.00 58 1016.4
20260905070524 25 302 9.7 20.9 0.00 0.00 0.00 59 1016.4
20260905065519 26 313 8.0 17.7 0.00 0.00 0.00 58 1016.4